Date String (YYYY-MM-DD hh:mm:ss) UTC,Instrument flags,absolute air pressure of the measurement (hPa),sample flow rate (lpm),inlet stack bypass flow (lpm),air temperature of the measurement (°C),ambient temperature measured by the external sensor (°C),aerosol sample conditioner tube jacket temperature (°C),OPC LED temperature (°C),internal box temperature (°C),relative humidity of the measurement (%),span deviation,mass concentration of particles derived from Lorenz-Mie calculation of OPC scattering (μg/m³),mass concentration of particles derived from Lorenz-Mie calculation of OPC scattering (μg/m³),mass concentration of particles derived from Lorenz-Mie calculation of OPC scattering (μg/m³)
DateTimeUTC,F1_M11,P_M11,Q1_M11,Q2_M11,T1_M11,T2_M11,T3_M11,T4_M11,T5_M11,U1_M11,ZSPAN_M11,X0_M11,X2_M11,X1_M11
2023-08-27 18:00:00,SystemResetWarning,0835.2,5.01,000.00,030.9,024.8,000.0,038.5,030.0,33.0,0000.9,0011.07,0008.28,0007.87
2023-08-27 18:01:00,SystemResetWarning,0835.2,5.01,000.00,030.7,025.2,000.0,038.5,030.1,33.3,0000.9,0010.93,0008.23,0007.85
2023-08-27 18:02:00,SystemResetWarning,0835.2,4.99,000.00,030.7,025.6,000.0,038.6,030.2,33.6,0000.6,0010.80,0008.16,0007.82
2023-08-27 18:03:00,SystemResetWarning,0835.2,5.00,000.00,030.6,026.0,000.0,038.6,030.3,33.5,0000.4,0010.71,0008.11,0007.81
2023-08-27 18:04:00,SystemResetWarning,0835.3,5.01,000.00,030.6,026.3,000.0,038.6,030.4,34.1,0000.7,0011.17,0008.12,0007.81
2023-08-27 18:05:00,SystemResetWarning,0835.3,4.98,000.00,030.6,026.1,000.0,038.5,030.4,33.3,0000.6,0011.37,0008.11,0007.79
2023-08-27 18:06:00,SystemResetWarning,0835.2,5.00,000.00,030.5,025.0,000.0,038.3,030.2,33.3,0000.4,0011.44,0008.12,0007.77
2023-08-27 18:07:00,SystemResetWarning,0835.2,5.01,000.00,030.4,024.4,000.0,038.2,030.0,33.6,0000.2,0011.47,0008.12,0007.77
2023-08-27 18:08:00,SystemResetWarning,0835.1,5.01,000.00,030.3,024.5,000.0,038.2,029.8,33.8,0000.4,0011.62,0008.16,0007.77
2023-08-27 18:09:00,SystemResetWarning,0835.1,5.00,000.00,030.1,024.9,000.0,038.2,029.8,33.9,0000.6,0011.74,0008.22,0007.78
2023-08-27 18:10:00,SystemResetWarning,0835.2,5.00,000.00,030.0,025.3,000.0,038.2,030.0,34.2,0000.3,0011.89,0008.25,0007.79
2023-08-27 18:11:00,SystemResetWarning,0835.1,4.97,000.00,030.0,025.7,000.0,038.2,030.1,35.2,0000.6,0011.90,0008.24,0007.77
2023-08-27 18:12:00,SystemResetWarning,0835.2,5.04,000.00,030.1,026.1,000.0,038.2,030.2,35.3,0000.7,0011.86,0008.19,0007.74
2023-08-27 18:13:00,SystemResetWarning,0835.1,4.96,000.00,030.2,026.3,000.0,038.2,030.4,34.6,0001.0,0011.93,0008.19,0007.73
2023-08-27 18:14:00,SystemResetWarning,0835.1,4.99,000.00,030.3,025.5,000.0,038.0,030.3,34.7,0001.1,0012.61,0008.17,0007.70
2023-08-27 18:15:00,SystemResetWarning,0835.1,5.03,000.00,030.4,024.4,000.0,037.9,030.1,34.4,0000.7,0012.46,0008.14,0007.68
2023-08-27 18:16:00,SystemResetWarning,0835.1,4.98,000.00,030.4,024.3,000.0,037.8,030.0,34.3,0000.6,0012.25,0008.12,0007.67
2023-08-27 18:17:00,SystemResetWarning,0835.0,5.00,000.00,030.2,024.5,000.0,037.9,029.9,34.3,0000.6,0012.22,0008.10,0007.66
2023-08-27 18:18:00,SystemResetWarning,0835.0,5.00,000.00,030.2,025.0,000.0,038.0,029.9,35.1,0000.7,0012.21,0008.10,0007.66
2023-08-27 18:19:00,SystemResetWarning,0835.0,5.02,000.00,030.3,025.4,000.0,038.0,030.1,35.3,0000.8,0012.26,0008.11,0007.68
2023-08-27 18:20:00,SystemResetWarning,0835.0,4.98,000.00,030.5,025.8,000.0,038.1,030.3,35.1,0000.8,0012.94,0008.07,0007.67
2023-08-27 18:21:00,SystemResetWarning,0835.0,5.02,000.00,030.8,026.2,000.0,038.1,030.5,34.8,0000.8,0013.01,0008.07,0007.68
2023-08-27 18:22:00,SystemResetWarning,0835.0,4.98,000.00,031.1,026.4,000.0,038.2,030.6,32.9,0000.6,0013.03,0008.08,0007.68
2023-08-27 18:23:00,SystemResetWarning,0835.0,5.01,000.00,031.2,025.7,000.0,038.1,030.5,32.5,0000.4,0013.09,0008.13,0007.71
2023-08-27 18:24:00,SystemResetWarning,0835.0,5.00,000.00,031.3,024.5,000.0,038.1,030.3,32.3,0000.3,0013.19,0008.16,0007.70
2023-08-27 18:25:00,SystemResetWarning,0834.9,5.00,000.00,031.3,024.2,000.0,038.1,030.1,32.4,0000.2,0012.48,0008.12,0007.65
2023-08-27 18:26:00,SystemResetWarning,0834.9,5.00,000.00,031.1,024.4,000.0,038.2,029.9,32.7,0000.3,0012.41,0008.06,0007.59
2023-08-27 18:27:00,SystemResetWarning,0834.9,5.01,000.00,031.0,024.8,000.0,038.3,030.0,33.1,0000.3,0012.40,0008.00,0007.52
2023-08-27 18:28:00,SystemResetWarning,0834.9,5.00,000.00,030.9,025.3,000.0,038.4,030.1,33.7,0000.1,0012.37,0007.93,0007.45
2023-08-27 18:29:00,SystemResetWarning,0835.0,5.00,000.00,030.9,025.7,000.0,038.5,030.2,33.8,-000.2,0012.65,0007.87,0007.38
2023-08-27 18:30:00,SystemResetWarning,0835.0,5.01,000.00,030.8,026.1,000.0,038.5,030.3,34.1,-000.2,0012.76,0007.80,0007.33
2023-08-27 18:31:00,SystemResetWarning,0835.0,5.00,000.00,030.8,026.4,000.0,038.6,030.4,34.3,-000.3,0012.31,0007.74,0007.29
2023-08-27 18:32:00,SystemResetWarning,0835.0,4.99,000.00,030.8,026.4,000.0,038.5,030.4,34.1,-000.4,0011.71,0007.71,0007.23
2023-08-27 18:33:00,SystemResetWarning,0835.0,4.98,000.00,030.8,025.2,000.0,038.4,030.3,34.6,-000.5,0011.72,0007.62,0007.15
2023-08-27 18:34:00,SystemResetWarning,0834.9,5.02,000.00,030.7,024.4,000.0,038.3,030.1,34.1,-000.3,0011.75,0007.56,0007.09
2023-08-27 18:35:00,SystemResetWarning,0835.2,5.00,000.00,030.6,024.4,000.0,038.2,030.0,33.9,-000.5,0011.69,0007.47,0007.03
2023-08-27 18:36:00,SystemResetWarning,0835.3,4.99,000.00,030.4,024.7,000.0,038.3,029.9,34.4,-000.5,0011.79,0007.40,0006.97
2023-08-27 18:37:00,SystemResetWarning,0835.3,5.01,000.00,030.3,025.1,000.0,038.3,030.0,34.3,-000.5,0011.86,0007.37,0006.95
2023-08-27 18:38:00,SystemResetWarning,0835.3,5.00,000.00,030.2,025.6,000.0,038.3,030.1,33.8,-000.5,0011.51,0007.36,0006.94
2023-08-27 18:39:00,SystemResetWarning,0835.4,5.00,000.00,030.2,025.9,000.0,038.3,030.2,33.5,-000.2,0011.47,0007.35,0006.94
2023-08-27 18:40:00,SystemResetWarning,0835.3,5.00,000.00,030.2,026.3,000.0,038.3,030.3,34.0,0000.2,0011.22,0007.33,0006.94
2023-08-27 18:41:00,SystemResetWarning,0835.3,5.00,000.00,030.2,026.4,000.0,038.3,030.3,34.7,0000.1,0011.19,0007.32,0006.92
2023-08-27 18:42:00,SystemResetWarning,0834.9,4.97,000.00,030.1,025.3,000.0,038.1,030.1,34.9,-000.1,0011.13,0007.29,0006.90
2023-08-27 18:43:00,SystemResetWarning,0835.1,5.04,000.00,030.1,024.4,000.0,038.0,029.9,35.1,0000.0,0010.99,0007.26,0006.91
2023-08-27 18:44:00,SystemResetWarning,0835.2,4.99,000.00,030.2,024.4,000.0,037.9,029.9,35.7,0000.2,0010.85,0007.25,0006.92
2023-08-27 18:45:00,SystemResetWarning,0835.1,5.01,000.00,030.4,024.7,000.0,037.9,030.0,34.1,0000.0,0010.60,0007.24,0006.93
2023-08-27 18:46:00,SystemResetWarning,0835.2,4.99,000.00,030.5,025.1,000.0,038.0,030.1,33.5,0000.6,0010.70,0007.24,0006.96
2023-08-27 18:47:00,SystemResetWarning,0835.0,5.00,000.00,030.6,025.5,000.0,038.0,030.2,34.1,0000.8,0011.45,0007.28,0007.02
2023-08-27 18:48:00,SystemResetWarning,0834.6,4.99,000.00,030.6,025.9,000.0,038.1,030.3,34.8,0001.0,0011.43,0007.33,0007.07
2023-08-27 18:49:00,SystemResetWarning,0834.6,5.03,000.00,030.7,026.2,000.0,038.2,030.4,34.3,0001.2,0011.39,0007.38,0007.11
2023-08-27 18:50:00,SystemResetWarning,0834.8,4.97,000.00,030.8,025.9,000.0,038.1,030.3,33.8,0001.3,0011.46,0007.44,0007.16
2023-08-27 18:51:00,SystemResetWarning,0835.1,5.01,000.00,030.8,024.7,000.0,038.0,030.1,34.6,0001.1,0012.00,0007.46,0007.18
2023-08-27 18:52:00,SystemResetWarning,0834.5,5.01,000.00,030.7,024.4,000.0,038.0,030.0,34.0,0001.3,0011.90,0007.47,0007.20
2023-08-27 18:53:00,SystemResetWarning,0834.5,4.99,000.00,030.6,024.6,000.0,038.0,029.9,34.1,0001.3,0011.93,0007.48,0007.20
2023-08-27 18:54:00,SystemResetWarning,0834.7,4.99,000.00,030.5,024.9,000.0,038.1,029.9,34.5,0001.4,0012.00,0007.50,0007.21
2023-08-27 18:55:00,SystemResetWarning,0835.0,5.00,000.00,030.4,025.4,000.0,038.2,030.1,34.2,0001.5,0012.05,0007.53,0007.24
2023-08-27 18:56:00,SystemResetWarning,0835.0,5.00,000.00,030.4,025.8,000.0,038.2,030.2,33.8,0001.6,0012.05,0007.50,0007.19
2023-08-27 18:57:00,SystemResetWarning,0834.8,4.99,000.00,030.3,026.2,000.0,038.2,030.3,34.0,0001.3,0012.02,0007.47,0007.14
2023-08-27 18:58:00,SystemResetWarning,0835.0,5.00,000.00,030.3,026.3,000.0,038.2,030.3,33.7,0001.5,0011.19,0007.47,0007.10
2023-08-27 18:59:00,SystemResetWarning,0835.1,4.98,000.00,030.3,025.3,000.0,038.1,030.1,34.3,0001.7,0011.47,0007.44,0007.06
